contact:dominique.lefevre@mio.osupytheas.fr, maurice.libes@osupytheas.fr, didier.mallarino@osupytheas.fr
Project:EMSO http://www.emso-fr.org/EMSO-France
Depth: 2436.0 m
Title:EMSO Ligure Ouest : Data MII capteur CSTAR
DateTime,Latitude,Longitude,Instrument_Serial,Reference_Counts,Signal_Counts,Corrected_Signal_raw_counts,Calculated_Beam_c_inverse_meters,Internal_thermistor_counts
DateTime,Latitude,Longitude,Instrument_Serial,Reference_Counts,Signal_Counts,Corrected_Signal_raw_counts,Calculated_Beam_c_inverse_meters,Internal_thermistor_counts
2024-04-29T00:01:58,42.805,6.029,CST-1368DR,4093,4228,10945,01.422,553
2024-04-29T00:04:59,42.805,6.029,CST-1368DR,4094,4231,10951,01.419,553
2024-04-29T00:08:01,42.805,6.029,CST-1368DR,4093,4224,10936,01.425,553
2024-04-29T00:11:03,42.805,6.029,CST-1368DR,4093,4229,10948,01.421,553
2024-04-29T00:14:04,42.805,6.029,CST-1368DR,4093,4230,10950,01.420,553
2024-04-29T00:17:06,42.805,6.029,CST-1368DR,4093,4229,10947,01.421,553
2024-04-29T00:20:07,42.805,6.029,CST-1368DR,4093,4229,10947,01.421,553
2024-04-29T00:23:09,42.805,6.029,CST-1368DR,4093,4228,10945,01.422,553
2024-04-29T00:26:11,42.805,6.029,CST-1368DR,4093,4227,10942,01.423,553
2024-04-29T00:29:12,42.805,6.029,CST-1368DR,4093,4227,10942,01.423,553
2024-04-29T00:32:14,42.805,6.029,CST-1368DR,4093,4228,10945,01.422,553
2024-04-29T00:35:15,42.805,6.029,CST-1368DR,4093,4227,10943,01.422,553
2024-04-29T00:38:17,42.805,6.029,CST-1368DR,4093,4226,10941,01.423,553
2024-04-29T00:41:18,42.805,6.029,CST-1368DR,4093,4226,10941,01.423,553
2024-04-29T00:44:20,42.805,6.029,CST-1368DR,4093,4228,10944,01.422,553
2024-04-29T00:47:22,42.805,6.029,CST-1368DR,4093,4225,10938,01.424,553
2024-04-29T00:50:23,42.805,6.029,CST-1368DR,4093,4226,10941,01.423,553
2024-04-29T00:53:25,42.805,6.029,CST-1368DR,4093,4226,10939,01.424,553
2024-04-29T00:56:26,42.805,6.029,CST-1368DR,4093,4225,10938,01.424,553
2024-04-29T00:59:28,42.805,6.029,CST-1368DR,4093,4226,10939,01.424,553
2024-04-29T01:02:29,42.805,6.029,CST-1368DR,4093,4227,10941,01.423,553
2024-04-29T01:05:31,42.805,6.029,CST-1368DR,4093,4225,10938,01.424,553
2024-04-29T01:08:33,42.805,6.029,CST-1368DR,4093,4226,10939,01.424,553
2024-04-29T01:11:34,42.805,6.029,CST-1368DR,4093,4224,10934,01.426,553
2024-04-29T01:14:36,42.805,6.029,CST-1368DR,4093,4225,10938,01.424,553
2024-04-29T01:17:37,42.805,6.029,CST-1368DR,4093,4227,10941,01.423,553
2024-04-29T01:20:39,42.805,6.029,CST-1368DR,4093,4223,10933,01.426,553
2024-04-29T01:23:41,42.805,6.029,CST-1368DR,4093,4223,10932,01.426,553
2024-04-29T01:26:42,42.805,6.029,CST-1368DR,4093,4224,10935,01.425,553
2024-04-29T01:29:44,42.805,6.029,CST-1368DR,4093,4221,10928,01.428,553
2024-04-29T01:32:45,42.805,6.029,CST-1368DR,4093,4223,10933,01.426,553
2024-04-29T01:35:47,42.805,6.029,CST-1368DR,4093,4223,10932,01.426,553
2024-04-29T01:38:48,42.805,6.029,CST-1368DR,4093,4224,10934,01.426,553
2024-04-29T01:41:50,42.805,6.029,CST-1368DR,4093,4224,10935,01.425,553
2024-04-29T01:44:52,42.805,6.029,CST-1368DR,4093,4223,10931,01.427,553
2024-04-29T01:47:53,42.805,6.029,CST-1368DR,4093,4222,10930,01.427,553
2024-04-29T01:50:55,42.805,6.029,CST-1368DR,4093,4223,10932,01.426,553
2024-04-29T01:53:56,42.805,6.029,CST-1368DR,4093,4224,10934,01.426,553
2024-04-29T01:56:58,42.805,6.029,CST-1368DR,4093,4224,10934,01.426,553
2024-04-29T01:59:59,42.805,6.029,CST-1368DR,4093,4224,10934,01.426,553
2024-04-29T02:03:01,42.805,6.029,CST-1368DR,4093,4223,10933,01.426,553
2024-04-29T02:06:02,42.805,6.029,CST-1368DR,4093,4223,10932,01.426,553
2024-04-29T02:09:04,42.805,6.029,CST-1368DR,4093,4223,10932,01.426,553
2024-04-29T02:12:05,42.805,6.029,CST-1368DR,4093,4223,10932,01.426,553
2024-04-29T02:15:07,42.805,6.029,CST-1368DR,4093,4224,10936,01.425,553
2024-04-29T02:18:09,42.805,6.029,CST-1368DR,4093,4222,10930,01.427,553
2024-04-29T02:21:10,42.805,6.029,CST-1368DR,4093,4223,10931,01.427,553
2024-04-29T02:24:12,42.805,6.029,CST-1368DR,4093,4222,10930,01.427,553
2024-04-29T02:27:13,42.805,6.029,CST-1368DR,4093,4226,10939,01.424,553
2024-04-29T02:30:15,42.805,6.029,CST-1368DR,4093,4221,10927,01.428,553
2024-04-29T02:33:16,42.805,6.029,CST-1368DR,4093,4222,10930,01.427,553
2024-04-29T02:36:18,42.805,6.029,CST-1368DR,4093,4221,10926,01.429,553
2024-04-29T02:39:20,42.805,6.029,CST-1368DR,4093,4222,10930,01.427,553
2024-04-29T02:42:21,42.805,6.029,CST-1368DR,4093,4222,10929,01.428,553
2024-04-29T02:45:23,42.805,6.029,CST-1368DR,4093,4221,10926,01.429,553
2024-04-29T02:48:24,42.805,6.029,CST-1368DR,4093,4198,10868,01.450,553
2024-04-29T02:51:26,42.805,6.029,CST-1368DR,4093,4219,10921,01.430,553
2024-04-29T02:54:27,42.805,6.029,CST-1368DR,4093,4219,10922,01.430,553
2024-04-29T02:57:29,42.805,6.029,CST-1368DR,4093,4221,10926,01.429,553
2024-04-29T03:00:31,42.805,6.029,CST-1368DR,4093,4221,10926,01.429,553
2024-04-29T03:03:32,42.805,6.029,CST-1368DR,4093,4221,10928,01.428,553
2024-04-29T03:06:34,42.805,6.029,CST-1368DR,4093,4220,10925,01.429,553
2024-04-29T03:09:35,42.805,6.029,CST-1368DR,4093,4221,10927,01.428,553
2024-04-29T03:12:37,42.805,6.029,CST-1368DR,4093,4220,10924,01.429,553
2024-04-29T03:15:39,42.805,6.029,CST-1368DR,4093,4221,10928,01.428,553
2024-04-29T03:18:40,42.805,6.029,CST-1368DR,4093,4219,10922,01.430,553
2024-04-29T03:21:42,42.805,6.029,CST-1368DR,4093,4220,10925,01.429,553
2024-04-29T03:24:43,42.805,6.029,CST-1368DR,4093,4231,10953,01.419,553
2024-04-29T03:27:45,42.805,6.029,CST-1368DR,4093,4221,10926,01.429,553
2024-04-29T03:30:46,42.805,6.029,CST-1368DR,4093,4222,10930,01.427,553
2024-04-29T03:33:48,42.805,6.029,CST-1368DR,4093,4219,10922,01.430,553
2024-04-29T03:36:50,42.805,6.029,CST-1368DR,4093,4221,10926,01.429,553
2024-04-29T03:39:51,42.805,6.029,CST-1368DR,4093,4220,10925,01.429,553
2024-04-29T03:42:53,42.805,6.029,CST-1368DR,4092,4221,10928,01.428,553
2024-04-29T03:45:54,42.805,6.029,CST-1368DR,4093,4220,10923,01.430,553
2024-04-29T03:48:56,42.805,6.029,CST-1368DR,4093,4220,10925,01.429,553
2024-04-29T03:51:57,42.805,6.029,CST-1368DR,4092,4220,10926,01.429,553
2024-04-29T03:54:59,42.805,6.029,CST-1368DR,4092,4220,10927,01.428,553
2024-04-29T03:58:01,42.805,6.029,CST-1368DR,4092,4220,10927,01.428,553
2024-04-29T04:01:03,42.805,6.029,CST-1368DR,4092,4219,10925,01.429,553
2024-04-29T04:04:05,42.805,6.029,CST-1368DR,4092,4220,10928,01.428,553
2024-04-29T04:07:06,42.805,6.029,CST-1368DR,4092,4221,10929,01.428,553
2024-04-29T04:10:08,42.805,6.029,CST-1368DR,4092,4220,10927,01.428,553
2024-04-29T04:13:09,42.805,6.029,CST-1368DR,4092,4219,10925,01.429,553
2024-04-29T04:16:11,42.805,6.029,CST-1368DR,4092,4220,10926,01.429,553
2024-04-29T04:19:13,42.805,6.029,CST-1368DR,4092,4221,10930,01.427,553
2024-04-29T04:22:14,42.805,6.029,CST-1368DR,4092,4221,10929,01.428,553
2024-04-29T04:25:16,42.805,6.029,CST-1368DR,4092,4221,10929,01.428,553
2024-04-29T04:28:17,42.805,6.029,CST-1368DR,4092,4221,10930,01.427,553
2024-04-29T04:31:19,42.805,6.029,CST-1368DR,4092,4222,10932,01.426,553
2024-04-29T04:34:20,42.805,6.029,CST-1368DR,4092,4221,10928,01.428,553
2024-04-29T04:37:22,42.805,6.029,CST-1368DR,4092,4222,10933,01.426,553
2024-04-29T04:40:24,42.805,6.029,CST-1368DR,4092,4221,10930,01.427,553
2024-04-29T04:43:25,42.805,6.029,CST-1368DR,4092,4221,10929,01.428,553
2024-04-29T04:46:27,42.805,6.029,CST-1368DR,4092,4222,10932,01.426,553
2024-04-29T04:49:28,42.805,6.029,CST-1368DR,4092,4221,10928,01.428,553
2024-04-29T04:52:30,42.805,6.029,CST-1368DR,4092,4221,10930,01.427,553
2024-04-29T04:55:32,42.805,6.029,CST-1368DR,4092,4220,10926,01.429,553
2024-04-29T04:58:33,42.805,6.029,CST-1368DR,4092,4220,10927,01.428,553
2024-04-29T05:01:35,42.805,6.029,CST-1368DR,4092,4219,10925,01.429,553
2024-04-29T05:04:36,42.805,6.029,CST-1368DR,4092,4223,10934,01.426,553
2024-04-29T05:07:38,42.805,6.029,CST-1368DR,4092,4224,10938,01.424,553
2024-04-29T05:10:39,42.805,6.029,CST-1368DR,4092,4222,10932,01.426,553
2024-04-29T05:13:41,42.805,6.029,CST-1368DR,4091,4220,10930,01.427,553
2024-04-29T05:16:43,42.805,6.029,CST-1368DR,4092,4223,10934,01.426,553
2024-04-29T05:19:44,42.805,6.029,CST-1368DR,4092,4223,10934,01.426,553
2024-04-29T05:22:46,42.805,6.029,CST-1368DR,4092,4221,10930,01.427,553
2024-04-29T05:25:47,42.805,6.029,CST-1368DR,4092,4221,10930,01.427,553
2024-04-29T05:28:49,42.805,6.029,CST-1368DR,4092,4224,10937,01.425,553
2024-04-29T05:31:50,42.805,6.029,CST-1368DR,4092,4223,10934,01.426,553
2024-04-29T05:34:52,42.805,6.029,CST-1368DR,4092,4221,10929,01.428,553
2024-04-29T05:37:54,42.805,6.029,CST-1368DR,4092,4223,10934,01.426,553
2024-04-29T05:40:55,42.805,6.029,CST-1368DR,4092,4219,10925,01.429,553
2024-04-29T05:43:57,42.805,6.029,CST-1368DR,4092,4221,10929,01.428,553
2024-04-29T05:46:58,42.805,6.029,CST-1368DR,4092,4221,10929,01.428,553
2024-04-29T05:50:00,42.805,6.029,CST-1368DR,4092,4219,10925,01.429,553
2024-04-29T05:53:02,42.805,6.029,CST-1368DR,4092,4224,10937,01.425,553
2024-04-29T05:56:03,42.805,6.029,CST-1368DR,4092,4221,10928,01.428,553
2024-04-29T05:59:05,42.805,6.029,CST-1368DR,4093,4221,10926,01.429,553
2024-04-29T06:02:07,42.805,6.029,CST-1368DR,4092,4221,10930,01.427,553
2024-04-29T06:05:09,42.805,6.029,CST-1368DR,4093,4225,10936,01.425,553
2024-04-29T06:08:11,42.805,6.029,CST-1368DR,4093,4221,10927,01.428,553
2024-04-29T06:11:12,42.805,6.029,CST-1368DR,4093,4221,10927,01.428,553
2024-04-29T06:14:14,42.805,6.029,CST-1368DR,4093,4222,10929,01.428,553
2024-04-29T06:17:15,42.805,6.029,CST-1368DR,4093,4222,10930,01.427,553
2024-04-29T06:20:17,42.805,6.029,CST-1368DR,4093,4221,10926,01.429,553
2024-04-29T06:23:18,42.805,6.029,CST-1368DR,4093,4220,10923,01.430,553
2024-04-29T06:26:20,42.805,6.029,CST-1368DR,4093,4222,10930,01.427,553
2024-04-29T06:29:22,42.805,6.029,CST-1368DR,4093,4216,10915,01.433,553
2024-04-29T06:32:23,42.805,6.029,CST-1368DR,4093,4221,10927,01.428,553
2024-04-29T06:35:25,42.805,6.029,CST-1368DR,4093,4222,10929,01.428,553
2024-04-29T06:38:26,42.805,6.029,CST-1368DR,4093,4221,10926,01.429,553
2024-04-29T06:41:28,42.805,6.029,CST-1368DR,4093,4221,10927,01.428,553
2024-04-29T06:44:30,42.805,6.029,CST-1368DR,4093,4220,10925,01.429,553
2024-04-29T06:47:31,42.805,6.029,CST-1368DR,4093,4220,10925,01.429,553
2024-04-29T06:50:33,42.805,6.029,CST-1368DR,4093,4219,10921,01.430,553
2024-04-29T06:53:34,42.805,6.029,CST-1368DR,4093,4220,10923,01.430,553
2024-04-29T06:56:36,42.805,6.029,CST-1368DR,4093,4221,10927,01.428,553
2024-04-29T06:59:37,42.805,6.029,CST-1368DR,4093,4220,10925,01.429,553
2024-04-29T07:02:39,42.805,6.029,CST-1368DR,4093,4219,10923,01.430,553
2024-04-29T07:05:41,42.805,6.029,CST-1368DR,4093,4220,10925,01.429,553
2024-04-29T07:08:42,42.805,6.029,CST-1368DR,4093,4220,10925,01.429,553
2024-04-29T07:11:44,42.805,6.029,CST-1368DR,4093,4221,10928,01.428,553
2024-04-29T07:14:45,42.805,6.029,CST-1368DR,4093,4222,10930,01.427,553
2024-04-29T07:17:47,42.805,6.029,CST-1368DR,4093,4221,10928,01.428,553
2024-04-29T07:20:49,42.805,6.029,CST-1368DR,4093,4220,10925,01.429,553
2024-04-29T07:23:50,42.805,6.029,CST-1368DR,4093,4220,10925,01.429,553
2024-04-29T07:26:52,42.805,6.029,CST-1368DR,4093,4219,10921,01.430,553
2024-04-29T07:29:53,42.805,6.029,CST-1368DR,4093,4220,10923,01.430,553
2024-04-29T07:32:55,42.805,6.029,CST-1368DR,4093,4219,10923,01.430,553
2024-04-29T07:35:56,42.805,6.029,CST-1368DR,4093,4217,10917,01.432,553
2024-04-29T07:38:58,42.805,6.029,CST-1368DR,4093,4220,10924,01.429,553
2024-04-29T07:42:00,42.805,6.029,CST-1368DR,4092,4220,10926,01.429,553
2024-04-29T07:45:01,42.805,6.029,CST-1368DR,4093,4217,10916,01.432,553
2024-04-29T07:48:03,42.805,6.029,CST-1368DR,4093,4221,10927,01.428,553
2024-04-29T07:51:04,42.805,6.029,CST-1368DR,4093,4219,10921,01.430,553
2024-04-29T07:54:06,42.805,6.029,CST-1368DR,4093,4220,10924,01.429,553
2024-04-29T07:57:07,42.805,6.029,CST-1368DR,4093,4220,10925,01.429,553
2024-04-29T08:00:09,42.805,6.029,CST-1368DR,4093,4220,10924,01.429,553
2024-04-29T08:03:11,42.805,6.029,CST-1368DR,4093,4220,10923,01.430,553
2024-04-29T08:06:12,42.805,6.029,CST-1368DR,4093,4219,10922,01.430,553
2024-04-29T08:09:14,42.805,6.029,CST-1368DR,4093,4220,10925,01.429,553
2024-04-29T08:12:15,42.805,6.029,CST-1368DR,4093,4220,10925,01.429,553
2024-04-29T08:15:17,42.805,6.029,CST-1368DR,4093,4220,10925,01.429,553
2024-04-29T08:18:19,42.805,6.029,CST-1368DR,4093,4219,10922,01.430,553
2024-04-29T08:21:20,42.805,6.029,CST-1368DR,4093,4220,10925,01.429,553
2024-04-29T08:24:22,42.805,6.029,CST-1368DR,4093,4221,10926,01.429,553
2024-04-29T08:27:23,42.805,6.029,CST-1368DR,4093,4220,10924,01.429,553
2024-04-29T08:30:25,42.805,6.029,CST-1368DR,4092,4206,10891,01.441,553
2024-04-29T08:33:26,42.805,6.029,CST-1368DR,4092,4219,10924,01.429,553
2024-04-29T08:36:28,42.805,6.029,CST-1368DR,4093,4216,10914,01.433,553
2024-04-29T08:39:30,42.805,6.029,CST-1368DR,4092,4219,10925,01.429,553
2024-04-29T08:42:31,42.805,6.029,CST-1368DR,4093,4220,10923,01.430,553
2024-04-29T08:45:33,42.805,6.029,CST-1368DR,4093,4218,10920,01.431,553
2024-04-29T08:48:34,42.805,6.029,CST-1368DR,4093,4220,10923,01.430,553
2024-04-29T08:51:36,42.805,6.029,CST-1368DR,4093,4217,10917,01.432,553
2024-04-29T08:54:37,42.805,6.029,CST-1368DR,4093,4219,10921,01.430,553
2024-04-29T08:57:39,42.805,6.029,CST-1368DR,4092,4217,10919,01.431,553
2024-04-29T09:00:41,42.805,6.029,CST-1368DR,4092,4219,10925,01.429,553
2024-04-29T09:03:42,42.805,6.029,CST-1368DR,4093,4218,10919,01.431,553
2024-04-29T09:06:44,42.805,6.029,CST-1368DR,4092,4218,10921,01.430,553
2024-04-29T09:09:45,42.805,6.029,CST-1368DR,4093,4216,10914,01.433,553
2024-04-29T09:12:47,42.805,6.029,CST-1368DR,4092,4213,10909,01.435,553
2024-04-29T09:15:49,42.805,6.029,CST-1368DR,4092,4217,10918,01.432,553
2024-04-29T09:18:50,42.805,6.029,CST-1368DR,4092,4219,10925,01.429,553
2024-04-29T09:21:52,42.805,6.029,CST-1368DR,4092,4216,10916,01.432,553
2024-04-29T09:24:53,42.805,6.029,CST-1368DR,4092,4219,10925,01.429,553
2024-04-29T09:27:55,42.805,6.029,CST-1368DR,4092,4216,10916,01.432,553
2024-04-29T09:30:56,42.805,6.029,CST-1368DR,4092,4215,10915,01.433,553
2024-04-29T09:33:58,42.805,6.029,CST-1368DR,4092,4217,10918,01.432,553
2024-04-29T09:37:00,42.805,6.029,CST-1368DR,4092,4217,10918,01.432,553
2024-04-29T09:40:01,42.805,6.029,CST-1368DR,4092,4215,10914,01.433,553
2024-04-29T09:43:03,42.805,6.029,CST-1368DR,4092,4215,10915,01.433,553
2024-04-29T09:46:04,42.805,6.029,CST-1368DR,4092,4215,10913,01.433,553
2024-04-29T09:49:06,42.805,6.029,CST-1368DR,4092,4215,10913,01.433,553
2024-04-29T09:52:07,42.805,6.029,CST-1368DR,4092,4218,10921,01.430,553
2024-04-29T09:55:09,42.805,6.029,CST-1368DR,4092,4216,10916,01.432,553
2024-04-29T09:58:11,42.805,6.029,CST-1368DR,4092,4216,10916,01.432,553
2024-04-29T10:01:14,42.805,6.029,CST-1368DR,4092,4216,10917,01.432,553
2024-04-29T10:04:16,42.805,6.029,CST-1368DR,4092,4211,10903,01.437,553
2024-04-29T10:07:18,42.805,6.029,CST-1368DR,4092,4206,10892,01.441,553
2024-04-29T10:10:19,42.805,6.029,CST-1368DR,4092,4216,10916,01.432,553
2024-04-29T10:13:21,42.805,6.029,CST-1368DR,4092,4216,10917,01.432,553
2024-04-29T10:16:22,42.805,6.029,CST-1368DR,4092,4217,10920,01.431,553
2024-04-29T10:19:24,42.805,6.029,CST-1368DR,4092,4217,10920,01.431,553
2024-04-29T10:22:25,42.805,6.029,CST-1368DR,4092,4216,10916,01.432,553
2024-04-29T10:25:27,42.805,6.029,CST-1368DR,4092,4217,10919,01.431,553
2024-04-29T10:28:29,42.805,6.029,CST-1368DR,4092,4217,10919,01.431,553
2024-04-29T10:31:30,42.805,6.029,CST-1368DR,4092,4220,10926,01.429,553
2024-04-29T10:34:32,42.805,6.029,CST-1368DR,4092,4218,10923,01.430,553
2024-04-29T10:37:33,42.805,6.029,CST-1368DR,4092,4219,10924,01.429,553
2024-04-29T10:40:35,42.805,6.029,CST-1368DR,4092,4218,10921,01.430,553
2024-04-29T10:43:36,42.805,6.029,CST-1368DR,4092,4218,10921,01.430,553
2024-04-29T10:46:38,42.805,6.029,CST-1368DR,4092,4219,10925,01.429,553
2024-04-29T10:49:40,42.805,6.029,CST-1368DR,4092,4220,10926,01.429,553
2024-04-29T10:52:41,42.805,6.029,CST-1368DR,4092,4219,10924,01.429,553
2024-04-29T10:55:43,42.805,6.029,CST-1368DR,4092,4219,10923,01.430,553
2024-04-29T10:58:44,42.805,6.029,CST-1368DR,4092,4224,10938,01.424,553
2024-04-29T11:01:46,42.805,6.029,CST-1368DR,4092,4220,10926,01.429,553
2024-04-29T11:04:48,42.805,6.029,CST-1368DR,4092,4221,10929,01.428,553
2024-04-29T11:07:49,42.805,6.029,CST-1368DR,4092,4221,10928,01.428,553
2024-04-29T11:10:51,42.805,6.029,CST-1368DR,4092,4220,10927,01.428,553
2024-04-29T11:13:52,42.805,6.029,CST-1368DR,4092,4220,10927,01.428,553
2024-04-29T11:16:54,42.805,6.029,CST-1368DR,4092,4219,10923,01.430,553
2024-04-29T11:19:55,42.805,6.029,CST-1368DR,4092,4218,10923,01.430,553
2024-04-29T11:22:57,42.805,6.029,CST-1368DR,4092,4221,10928,01.428,553
2024-04-29T11:25:59,42.805,6.029,CST-1368DR,4092,4221,10928,01.428,553
2024-04-29T11:29:00,42.805,6.029,CST-1368DR,4092,4221,10929,01.428,553
2024-04-29T11:32:02,42.805,6.029,CST-1368DR,4092,4221,10930,01.427,553
2024-04-29T11:35:03,42.805,6.029,CST-1368DR,4092,4222,10933,01.426,553
2024-04-29T11:38:05,42.805,6.029,CST-1368DR,4092,4221,10930,01.427,553
2024-04-29T11:41:06,42.805,6.029,CST-1368DR,4092,4223,10934,01.426,553
2024-04-29T11:44:08,42.805,6.029,CST-1368DR,4092,4221,10930,01.427,553
2024-04-29T11:47:10,42.805,6.029,CST-1368DR,4092,4221,10928,01.428,553
2024-04-29T11:50:11,42.805,6.029,CST-1368DR,4092,4222,10933,01.426,553
2024-04-29T11:53:13,42.805,6.029,CST-1368DR,4092,4225,10939,01.424,553
2024-04-29T11:56:14,42.805,6.029,CST-1368DR,4092,4222,10933,01.426,553
2024-04-29T11:59:16,42.805,6.029,CST-1368DR,4092,4224,10938,01.424,553
2024-04-29T12:02:18,42.805,6.029,CST-1368DR,4092,4223,10935,01.425,553
2024-04-29T12:05:19,42.805,6.029,CST-1368DR,4092,4224,10937,01.425,553
2024-04-29T12:08:21,42.805,6.029,CST-1368DR,4092,4224,10938,01.424,553
2024-04-29T12:11:22,42.805,6.029,CST-1368DR,4092,4223,10935,01.425,553
2024-04-29T12:14:24,42.805,6.029,CST-1368DR,4092,4225,10939,01.424,553
2024-04-29T12:17:25,42.805,6.029,CST-1368DR,4092,4224,10938,01.424,553
2024-04-29T12:20:27,42.805,6.029,CST-1368DR,4092,4223,10935,01.425,553
2024-04-29T12:23:29,42.805,6.029,CST-1368DR,4092,4221,10930,01.427,553
2024-04-29T12:26:30,42.805,6.029,CST-1368DR,4092,4224,10936,01.425,553
2024-04-29T12:29:32,42.805,6.029,CST-1368DR,4092,4222,10933,01.426,553
2024-04-29T12:32:33,42.805,6.029,CST-1368DR,4092,4223,10935,01.425,553
2024-04-29T12:35:35,42.805,6.029,CST-1368DR,4092,4224,10936,01.425,553
2024-04-29T12:38:36,42.805,6.029,CST-1368DR,4092,4226,10943,01.422,553
2024-04-29T12:41:38,42.805,6.029,CST-1368DR,4092,4223,10936,01.425,553
2024-04-29T12:44:40,42.805,6.029,CST-1368DR,4092,4224,10937,01.425,553
2024-04-29T12:47:41,42.805,6.029,CST-1368DR,4092,4222,10933,01.426,553
2024-04-29T12:50:43,42.805,6.029,CST-1368DR,4092,4221,10930,01.427,553
2024-04-29T12:53:44,42.805,6.029,CST-1368DR,4092,4223,10934,01.426,553
2024-04-29T12:56:46,42.805,6.029,CST-1368DR,4092,4225,10939,01.424,553
2024-04-29T12:59:48,42.805,6.029,CST-1368DR,4092,4224,10938,01.424,553
2024-04-29T13:02:49,42.805,6.029,CST-1368DR,4092,4224,10936,01.425,553
2024-04-29T13:05:51,42.805,6.029,CST-1368DR,4092,4222,10932,01.426,553
2024-04-29T13:08:52,42.805,6.029,CST-1368DR,4092,4224,10937,01.425,553
2024-04-29T13:11:54,42.805,6.029,CST-1368DR,4092,4223,10935,01.425,553
2024-04-29T13:14:55,42.805,6.029,CST-1368DR,4092,4223,10935,01.425,553
2024-04-29T13:17:57,42.805,6.029,CST-1368DR,4092,4219,10925,01.429,553
2024-04-29T13:20:59,42.805,6.029,CST-1368DR,4092,4219,10925,01.429,553
2024-04-29T13:24:00,42.805,6.029,CST-1368DR,4092,4221,10930,01.427,553
2024-04-29T13:27:02,42.805,6.029,CST-1368DR,4092,4218,10923,01.430,553
2024-04-29T13:30:03,42.805,6.029,CST-1368DR,4092,4221,10930,01.427,553
2024-04-29T13:33:05,42.805,6.029,CST-1368DR,4092,4222,10932,01.426,553
2024-04-29T13:36:06,42.805,6.029,CST-1368DR,4092,4221,10930,01.427,553
2024-04-29T13:39:08,42.805,6.029,CST-1368DR,4092,4220,10927,01.428,553
2024-04-29T13:42:10,42.805,6.029,CST-1368DR,4092,4222,10932,01.426,553
2024-04-29T13:45:11,42.805,6.029,CST-1368DR,4092,4220,10928,01.428,553
2024-04-29T13:48:13,42.805,6.029,CST-1368DR,4092,4220,10927,01.428,553
2024-04-29T13:51:14,42.805,6.029,CST-1368DR,4092,4220,10926,01.429,553
2024-04-29T13:54:16,42.805,6.029,CST-1368DR,4092,4217,10919,01.431,553
2024-04-29T13:57:18,42.805,6.029,CST-1368DR,4092,4219,10924,01.429,553
2024-04-29T14:00:20,42.805,6.029,CST-1368DR,4092,4221,10929,01.428,553
2024-04-29T14:03:21,42.805,6.029,CST-1368DR,4092,4221,10928,01.428,553
2024-04-29T14:06:23,42.805,6.029,CST-1368DR,4092,4221,10930,01.427,553
2024-04-29T14:09:24,42.805,6.029,CST-1368DR,4092,4220,10927,01.428,553
2024-04-29T14:12:26,42.805,6.029,CST-1368DR,4092,4220,10928,01.428,553
2024-04-29T14:15:28,42.805,6.029,CST-1368DR,4092,4220,10926,01.429,553
2024-04-29T14:18:29,42.805,6.029,CST-1368DR,4092,4222,10932,01.426,553
2024-04-29T14:21:31,42.805,6.029,CST-1368DR,4092,4220,10927,01.428,553
2024-04-29T14:24:32,42.805,6.029,CST-1368DR,4092,4219,10925,01.429,553
2024-04-29T14:27:34,42.805,6.029,CST-1368DR,4092,4218,10923,01.430,553
2024-04-29T14:30:36,42.805,6.029,CST-1368DR,4092,4219,10925,01.429,553
2024-04-29T14:33:37,42.805,6.029,CST-1368DR,4092,4218,10921,01.430,553
2024-04-29T14:36:39,42.805,6.029,CST-1368DR,4092,4219,10924,01.429,553
2024-04-29T14:39:40,42.805,6.029,CST-1368DR,4092,4220,10926,01.429,553
2024-04-29T14:42:42,42.805,6.029,CST-1368DR,4092,4220,10926,01.429,553
2024-04-29T14:45:43,42.805,6.029,CST-1368DR,4092,4219,10924,01.429,553
2024-04-29T14:48:45,42.805,6.029,CST-1368DR,4092,4220,10927,01.428,553
2024-04-29T14:51:47,42.805,6.029,CST-1368DR,4092,4219,10923,01.430,553
2024-04-29T14:54:48,42.805,6.029,CST-1368DR,4092,4219,10925,01.429,553
2024-04-29T14:57:50,42.805,6.029,CST-1368DR,4092,4220,10927,01.428,553
2024-04-29T15:00:51,42.805,6.029,CST-1368DR,4092,4219,10925,01.429,553
2024-04-29T15:03:53,42.805,6.029,CST-1368DR,4092,4220,10927,01.428,553
2024-04-29T15:06:54,42.805,6.029,CST-1368DR,4092,4221,10929,01.428,553
2024-04-29T15:09:56,42.805,6.029,CST-1368DR,4092,4221,10928,01.428,553
2024-04-29T15:12:58,42.805,6.029,CST-1368DR,4092,4222,10932,01.426,553
2024-04-29T15:15:59,42.805,6.029,CST-1368DR,4092,4222,10932,01.426,553
2024-04-29T15:19:01,42.805,6.029,CST-1368DR,4092,4216,10916,01.432,553
2024-04-29T15:22:02,42.805,6.029,CST-1368DR,4092,4220,10928,01.428,553
2024-04-29T15:25:04,42.805,6.029,CST-1368DR,4092,4222,10933,01.426,553
2024-04-29T15:28:06,42.805,6.029,CST-1368DR,4092,4222,10932,01.426,553
2024-04-29T15:31:07,42.805,6.029,CST-1368DR,4092,4221,10930,01.427,553
2024-04-29T15:34:09,42.805,6.029,CST-1368DR,4092,4222,10932,01.426,553
2024-04-29T15:37:10,42.805,6.029,CST-1368DR,4092,4222,10932,01.426,553
2024-04-29T15:40:12,42.805,6.029,CST-1368DR,4092,4222,10933,01.426,553
2024-04-29T15:43:13,42.805,6.029,CST-1368DR,4092,4222,10932,01.426,553
2024-04-29T15:46:15,42.805,6.029,CST-1368DR,4092,4219,10923,01.430,553
2024-04-29T15:49:17,42.805,6.029,CST-1368DR,4092,4221,10930,01.427,553
2024-04-29T15:52:18,42.805,6.029,CST-1368DR,4092,4223,10936,01.425,553
2024-04-29T15:55:20,42.805,6.029,CST-1368DR,4092,4223,10935,01.425,553
2024-04-29T15:58:21,42.805,6.029,CST-1368DR,4092,4224,10938,01.424,553
2024-04-29T16:01:26,42.805,6.029,CST-1368DR,4092,4221,10930,01.427,553
2024-04-29T16:04:28,42.805,6.029,CST-1368DR,4092,4220,10928,01.428,553
2024-04-29T16:07:29,42.805,6.029,CST-1368DR,4092,4222,10932,01.426,553
2024-04-29T16:10:31,42.805,6.029,CST-1368DR,4092,4223,10936,01.425,553
2024-04-29T16:13:32,42.805,6.029,CST-1368DR,4092,4220,10927,01.428,553
2024-04-29T16:16:34,42.805,6.029,CST-1368DR,4092,4221,10930,01.427,553
2024-04-29T16:19:35,42.805,6.029,CST-1368DR,4092,4221,10929,01.428,553
2024-04-29T16:22:37,42.805,6.029,CST-1368DR,4092,4226,10942,01.423,553
2024-04-29T16:25:39,42.805,6.029,CST-1368DR,4092,4219,10923,01.430,553
2024-04-29T16:28:40,42.805,6.029,CST-1368DR,4092,4220,10928,01.428,553
2024-04-29T16:31:42,42.805,6.029,CST-1368DR,4092,4225,10940,01.423,553
2024-04-29T16:34:43,42.805,6.029,CST-1368DR,4092,4222,10933,01.426,553
2024-04-29T16:37:45,42.805,6.029,CST-1368DR,4092,4222,10932,01.426,553